This demonstration page uses our WeatherBlox Daily Observations layout. Learn more.

Left ArrowRight Arrow

Hourly Observations for February 7, 2017

Temp ( °F °C ) Dew Point ( °F °C ) Humidity (%) Winds ( mph kmh ) Pressure ( in mb ) Visibility ( mi km ) Precip ( " mm )
12:05 am 00:05 Cloudy with Light Snow -4 -20 -6 -21.1 91 91 Calm 30.15 1021 2 3 0.00 0.03
12:27 am 00:27 Cloudy with Light Snow -1 -18.3 -5 -20.6 82 82 WNW 5 7 30.15 1021 4 6 0.00 0.03
12:53 am 00:53 Cloudy with Mist and Fog -2 -18.9 -6 -21.1 83 83 SW 9 15 30.04 1017 6 10 0.00 0.03
1:35 am 01:35 Cloudy with Light Snow 0 -17.8 -4 -20 83 83 WSW 7 11 30.18 1022 3 4 0.00 0.03
1:43 am 01:43 Cloudy with Light Snow 0 -17.8 -3 -19.4 87 87 WSW 6 9 30.18 1022 4 6 0.00 0.03
1:53 am 01:53 Cloudy with Light Snow 1 -17.2 -2 -18.9 87 87 W 7 11 30.05 1018 5 8 0.00 0.03
2:18 am 02:18 Cloudy with Light Snow 1 -17 -2 -19 85 85 NW 7 11 30.18 1022 3 4 0.00 0.00
2:27 am 02:27 Cloudy with Light Snow 1 -17.2 -3 -19.4 83 83 NW 12 19 30.18 1022 2 2 0.00 0.03
2:49 am 02:49 Cloudy with Light Snow 1 -17 -2 -19 85 85 NW 10 17 30.21 1023 2 3 0.00 0.03
2:53 am 02:53 Cloudy with Light Snow 0 -17.8 -4 -20 83 83 NW 10 17 30.08 1019 3 4 0.01 0.25
3:04 am 03:04 Cloudy with Light Snow 0 -18 -4 -20 84 84 NW 9 15 30.21 1023 5 8 0.00 0.00
3:22 am 03:22 Cloudy with Light Snow 0 -18 -4 -20 84 84 NW 9 15 30.21 1023 3 4 0.00 0.00
3:39 am 03:39 Cloudy with Light Snow 0 -17.8 -3 -19.4 87 87 NW 9 15 30.21 1023 3 4 0.00 0.03
3:53 am 03:53 Cloudy with Light Snow 0 -17.8 -3 -19.4 87 87 WNW 6 9 30.09 1019 2 2 0.00 0.03
3:59 am 03:59 Cloudy with Light Snow 0 -17.8 -3 -19.4 87 87 WNW 6 9 30.21 1023 3 4 0.00 0.03
4:07 am 04:07 Cloudy with Light Snow 0 -18 -2 -19 92 92 WNW 6 9 30.27 1025 5 8 0.00 0.00
4:16 am 04:16 Cloudy with Light Snow 0 -18 -4 -20 84 84 NW 13 20 30.27 1025 3 4 0.00 0.00
4:24 am 04:24 Cloudy with Light Snow 0 -18 -4 -20 84 84 NW 6 9 30.27 1025 1 2 0.00 0.00
4:34 am 04:34 Cloudy with Light Snow 0 -18 -4 -20 84 84 NW 10 17 30.27 1025 2 3 0.00 0.00
4:53 am 04:53 Cloudy with Light Snow 0 -17.8 -4 -20 83 83 NW 9 15 30.11 1020 2 3 0.01 0.25
5:04 am 05:04 Cloudy with Light Snow 0 -18 -4 -20 84 84 NW 10 17 30.27 1025 3 5 0.00 0.00
5:15 am 05:15 Cloudy with Light Snow -1 -18.3 -5 -20.6 82 82 W 6 9 30.27 1025 5 8 0.00 0.03
5:53 am 05:53 Cloudy with Mist and Fog -4 -20 -8 -22.2 83 83 W 7 11 30.15 1021 6 10 0.00 0.03
6:10 am 06:10 Cloudy -2 -19 -8 -22 77 77 SSW 6 9 30.30 1026 10 16 0.00 0.00
6:53 am 06:53 Cloudy with Light Snow -2 -18.9 -7 -21.7 79 79 W 3 6 30.15 1021 4 6 0.00 0.03
7:16 am 07:16 Cloudy with Light Snow -2 -18.9 -7 -21.7 79 79 W 7 11 30.30 1026 2 3 0.00 0.03
7:23 am 07:23 Cloudy with Light Snow -2 -18.9 -7 -21.7 79 79 W 10 17 30.30 1026 2 3 0.01 0.25
7:29 am 07:29 Cloudy with Light Snow -3 -19.4 -7 -21.7 82 82 W 10 17 30.33 1027 3 5 0.01 0.25
7:43 am 07:43 Cloudy with Light Snow -4 -20 -9 -22.8 79 79 W 9 15 30.36 1028 5 8 0.01 0.25
7:53 am 07:53 Cloudy with Light Snow -4 -20 -9 -22.8 79 79 W 7 11 30.17 1022 4 6 0.01 0.25
8:40 am 08:40 Cloudy with Mist and Fog -8 -22 -11 -24 84 84 WSW 7 11 30.33 1027 6 10 0.00 0.00
8:53 am 08:53 Mostly Cloudy -9 -22.8 -12 -24.4 87 87 WSW 7 11 30.16 1022 10 16 0.00 0.03
9:53 am 09:53 Cloudy with Haze -4 -20 -10 -23.3 75 75 WNW 6 9 30.16 1021 3 5 0.00 0.00
10:03 am 10:03 Cloudy with Light Snow -4 -20 -9 -23 77 77 WNW 7 11 30.30 1026 2 3 0.00 0.00
10:16 am 10:16 Cloudy with Haze -2 -19 -9 -23 71 71 WNW 9 15 30.30 1026 3 5 0.00 0.00
10:21 am 10:21 Cloudy with Haze -3 -19.4 -10 -23.3 71 71 WNW 7 11 30.33 1027 3 4 0.00 0.03
10:29 am 10:29 Cloudy with Haze -3 -19.4 -10 -23.3 71 71 WNW 8 13 30.33 1027 3 5 0.00 0.03
10:53 am 10:53 Mostly Sunny -3 -19.4 -10 -23.3 71 71 W 6 9 30.19 1023 10 16 0.00 0.03
11:53 am 11:53 Mostly Sunny -3 -19.4 -11 -23.9 68 68 WNW 8 13 30.20 1023 10 16 0.00 0.00
12:53 pm 12:53 Cloudy -1 -18.3 -9 -22.8 68 68 WSW 5 7 30.15 1021 7 11 0.00 0.00
1:53 pm 13:53 Cloudy -1 -18.3 -9 -22.8 68 68 WNW 6 9 30.13 1020 10 16 0.00 0.00
2:53 pm 14:53 Cloudy -1 -18.3 -8 -22.2 72 72 NNW 6 9 30.11 1020 10 16 0.00 0.00
3:53 pm 15:53 Cloudy -3 -19.4 -9 -22.8 75 75 W 7 11 30.13 1020 10 16 0.00 0.00
4:53 pm 16:53 Cloudy -1 -18.3 -8 -22.2 72 72 NW 5 7 30.13 1020 10 16 0.00 0.00
5:53 pm 17:53 Cloudy -3 -19.4 -8 -22.2 79 79 W 6 9 30.17 1022 10 16 0.00 0.00
6:53 pm 18:53 Cloudy -5 -20.6 -11 -23.9 75 75 NW 9 15 30.19 1023 10 16 0.00 0.00
7:53 pm 19:53 Cloudy -7 -21.7 -13 -25 75 75 NW 7 11 30.22 1023 10 16 0.00 0.00
8:53 pm 20:53 Mostly Cloudy -9 -22.8 -14 -25.6 78 78 W 5 7 30.24 1024 10 16 0.00 0.00
9:53 pm 21:53 Cloudy -13 -25 -17 -27.2 82 82 SSW 8 13 30.26 1025 10 16 0.00 0.00
10:53 pm 22:53 Mostly Cloudy -15 -26.1 -19 -28.3 82 82 SSW 10 17 30.28 1025 10 16 0.00 0.00
11:53 pm 23:53 Cloudy -8 -22.2 -13 -25 78 78 SW 12 19 30.28 1025 10 16 0.00 0.00

Powered by AerisWeather